Year,Month,Day,Hour,Minute,Value (Times are PST for windspeed in km/hr)
2008,06,11,00,00,8.20
2008,06,11,00,01,8.40
2008,06,11,00,02,10.40
2008,06,11,00,03,5.10
2008,06,11,00,04,5.10
2008,06,11,00,05,5.10
2008,06,11,00,06,6.30
2008,06,11,00,07,4.80
2008,06,11,00,08,5.50
2008,06,11,00,09,7.20
2008,06,11,00,10,5.70
2008,06,11,00,11,5.40
2008,06,11,00,12,5.10
2008,06,11,00,13,6.50
2008,06,11,00,14,7.30
2008,06,11,00,15,5.30
2008,06,11,00,16,3.20
2008,06,11,00,17,5.10
2008,06,11,00,18,7.10
2008,06,11,00,19,5.30
2008,06,11,00,20,6.70
2008,06,11,00,21,5.90
2008,06,11,00,22,6.30
2008,06,11,00,23,4.80
2008,06,11,00,24,7.20
2008,06,11,00,25,8.00
2008,06,11,00,26,9.00
2008,06,11,00,27,3.80
2008,06,11,00,28,6.40
2008,06,11,00,29,6.90
2008,06,11,00,30,7.90
2008,06,11,00,31,6.10
2008,06,11,00,32,6.00
2008,06,11,00,33,5.90
2008,06,11,00,34,4.60
2008,06,11,00,35,6.10
2008,06,11,00,36,2.80
2008,06,11,00,37,5.10
2008,06,11,00,38,3.90
2008,06,11,00,39,6.50
2008,06,11,00,40,6.10
2008,06,11,00,41,4.70
2008,06,11,00,42,4.10
2008,06,11,00,43,6.60
2008,06,11,00,44,6.30
2008,06,11,00,45,10.00
2008,06,11,00,46,9.70
2008,06,11,00,47,4.70
2008,06,11,00,48,7.40
2008,06,11,00,49,6.60
2008,06,11,00,50,3.60
2008,06,11,00,51,7.20
2008,06,11,00,52,5.80
2008,06,11,00,53,5.80
2008,06,11,00,54,4.50
2008,06,11,00,55,4.60
2008,06,11,00,56,5.60
2008,06,11,00,57,5.50
2008,06,11,00,58,2.90
2008,06,11,00,59,4.10
2008,06,11,01,00,4.50
2008,06,11,01,01,4.30
2008,06,11,01,02,5.50
2008,06,11,01,03,6.90
2008,06,11,01,04,4.30
2008,06,11,01,05,4.30
2008,06,11,01,06,3.70
2008,06,11,01,07,4.90
2008,06,11,01,08,5.90
2008,06,11,01,09,5.00
2008,06,11,01,10,3.10
2008,06,11,01,11,4.10
2008,06,11,01,12,5.30
2008,06,11,01,13,3.40
2008,06,11,01,14,2.10
2008,06,11,01,15,1.80
2008,06,11,01,16,3.10
2008,06,11,01,17,5.30
2008,06,11,01,18,4.10
2008,06,11,01,19,6.30
2008,06,11,01,20,4.70
2008,06,11,01,21,3.50
2008,06,11,01,22,7.20
2008,06,11,01,23,5.50
2008,06,11,01,24,6.40
2008,06,11,01,25,5.80
2008,06,11,01,26,7.20
2008,06,11,01,27,5.80
2008,06,11,01,28,3.80
2008,06,11,01,29,5.30
2008,06,11,01,30,4.70
2008,06,11,01,31,5.00
2008,06,11,01,32,7.80
2008,06,11,01,33,7.70
2008,06,11,01,34,8.90
2008,06,11,01,35,5.40
2008,06,11,01,36,8.10
2008,06,11,01,37,7.30
2008,06,11,01,38,8.40
2008,06,11,01,39,8.90
2008,06,11,01,40,10.30
2008,06,11,01,41,8.50
2008,06,11,01,42,9.60
2008,06,11,01,43,7.30
2008,06,11,01,44,6.10
2008,06,11,01,45,5.60
2008,06,11,01,46,6.90
2008,06,11,01,47,7.00
2008,06,11,01,48,6.40
2008,06,11,01,49,7.40
2008,06,11,01,50,5.00
2008,06,11,01,51,7.10
2008,06,11,01,52,8.00
2008,06,11,01,53,6.00
2008,06,11,01,54,4.90
2008,06,11,01,55,6.40
2008,06,11,01,56,6.20
2008,06,11,01,57,5.20
2008,06,11,01,58,7.80
2008,06,11,01,59,6.90
2008,06,11,02,00,5.30
2008,06,11,02,01,5.60
2008,06,11,02,02,5.60
2008,06,11,02,03,6.10
2008,06,11,02,04,5.00
2008,06,11,02,05,5.80
2008,06,11,02,06,8.00
2008,06,11,02,07,7.10
2008,06,11,02,08,7.10
2008,06,11,02,09,8.00
2008,06,11,02,10,6.20
2008,06,11,02,11,6.10
2008,06,11,02,12,8.50
2008,06,11,02,13,6.80
2008,06,11,02,14,6.10
2008,06,11,02,15,3.90
2008,06,11,02,16,3.30
2008,06,11,02,17,4.60
2008,06,11,02,18,4.90
2008,06,11,02,19,4.80
2008,06,11,02,20,5.70
2008,06,11,02,21,4.80
2008,06,11,02,22,6.80
2008,06,11,02,23,6.80
2008,06,11,02,24,6.30
2008,06,11,02,25,6.30
2008,06,11,02,26,7.90
2008,06,11,02,27,5.00
2008,06,11,02,28,4.80
2008,06,11,02,29,5.50
2008,06,11,02,30,5.70
2008,06,11,02,31,7.50
2008,06,11,02,32,6.20
2008,06,11,02,33,5.90
2008,06,11,02,34,4.10
2008,06,11,02,35,3.40
2008,06,11,02,36,5.80
2008,06,11,02,37,5.50
2008,06,11,02,38,7.70
2008,06,11,02,39,6.50
2008,06,11,02,40,7.20
2008,06,11,02,41,5.80
2008,06,11,02,42,6.40
2008,06,11,02,43,5.50
2008,06,11,02,44,4.60
2008,06,11,02,45,4.20
2008,06,11,02,46,4.90
2008,06,11,02,47,5.60
2008,06,11,02,48,7.20
2008,06,11,02,49,7.30
2008,06,11,02,50,8.90
2008,06,11,02,51,7.00
2008,06,11,02,52,5.80
2008,06,11,02,53,7.80
2008,06,11,02,54,8.00
2008,06,11,02,55,7.00
2008,06,11,02,56,6.90
2008,06,11,02,57,5.80
2008,06,11,02,58,6.40
2008,06,11,02,59,6.20
2008,06,11,03,00,4.90
2008,06,11,03,01,6.30
2008,06,11,03,02,6.10
2008,06,11,03,03,5.30
2008,06,11,03,04,6.40
2008,06,11,03,05,8.60
2008,06,11,03,06,6.80
2008,06,11,03,07,6.00
2008,06,11,03,08,6.50
2008,06,11,03,09,4.70
2008,06,11,03,10,6.30
2008,06,11,03,11,10.90
2008,06,11,03,12,7.80
2008,06,11,03,13,6.90
2008,06,11,03,14,7.40
2008,06,11,03,15,7.70
2008,06,11,03,16,9.10
2008,06,11,03,17,6.10
2008,06,11,03,18,7.00
2008,06,11,03,19,5.60
2008,06,11,03,20,6.00
2008,06,11,03,21,6.60
2008,06,11,03,22,6.50
2008,06,11,03,23,7.10
2008,06,11,03,24,6.10
2008,06,11,03,25,6.00
2008,06,11,03,26,5.10
2008,06,11,03,27,6.90
2008,06,11,03,28,7.70
2008,06,11,03,29,6.70
2008,06,11,03,30,5.90
2008,06,11,03,31,5.20
2008,06,11,03,32,5.40
2008,06,11,03,33,6.20
2008,06,11,03,34,6.00
2008,06,11,03,35,3.90
2008,06,11,03,36,7.10
2008,06,11,03,37,5.40
2008,06,11,03,38,5.70
2008,06,11,03,39,4.10
2008,06,11,03,40,6.30
2008,06,11,03,41,7.00
2008,06,11,03,42,5.30
2008,06,11,03,43,6.40
2008,06,11,03,44,5.60
2008,06,11,03,45,6.00
2008,06,11,03,46,3.50
2008,06,11,03,47,5.20
2008,06,11,03,48,6.20
2008,06,11,03,49,5.20
2008,06,11,03,50,4.10
2008,06,11,03,51,4.70
2008,06,11,03,52,4.70
2008,06,11,03,53,5.40
2008,06,11,03,54,4.30
2008,06,11,03,55,3.40
2008,06,11,03,56,6.70
2008,06,11,03,57,3.50
2008,06,11,03,58,5.60
2008,06,11,03,59,7.80
2008,06,11,04,00,5.90
2008,06,11,04,01,6.10
2008,06,11,04,02,4.80
2008,06,11,04,03,6.10
2008,06,11,04,04,5.80
2008,06,11,04,05,3.60
2008,06,11,04,06,5.80
2008,06,11,04,07,7.90
2008,06,11,04,08,4.00
2008,06,11,04,09,5.10
2008,06,11,04,10,5.20
2008,06,11,04,11,4.70
2008,06,11,04,12,4.90
2008,06,11,04,13,3.90
2008,06,11,04,14,5.10
2008,06,11,04,15,2.70
2008,06,11,04,16,4.50
2008,06,11,04,17,6.90
2008,06,11,04,18,3.20
2008,06,11,04,19,3.90
2008,06,11,04,20,5.30
2008,06,11,04,21,6.30
2008,06,11,04,22,3.60
2008,06,11,04,23,4.80
2008,06,11,04,24,5.70
2008,06,11,04,25,2.20
2008,06,11,04,26,5.30
2008,06,11,04,27,7.00
2008,06,11,04,28,4.70
2008,06,11,04,29,2.70
2008,06,11,04,30,4.80
2008,06,11,04,31,2.60
2008,06,11,04,32,4.50
2008,06,11,04,33,5.40
2008,06,11,04,34,5.90
2008,06,11,04,35,5.30
2008,06,11,04,36,6.80
2008,06,11,04,37,3.30
2008,06,11,04,38,6.20
2008,06,11,04,39,2.90
2008,06,11,04,40,4.20
2008,06,11,04,41,4.90
2008,06,11,04,42,3.90
2008,06,11,04,43,3.00
2008,06,11,04,44,4.60
2008,06,11,04,45,4.80
2008,06,11,04,46,4.00
2008,06,11,04,47,3.60
2008,06,11,04,48,2.80
2008,06,11,04,49,5.20
2008,06,11,04,50,4.00
2008,06,11,04,51,6.10
2008,06,11,04,52,4.50
2008,06,11,04,53,6.80
2008,06,11,04,54,6.10
2008,06,11,04,55,3.60
2008,06,11,04,56,5.30
2008,06,11,04,57,5.60
2008,06,11,04,58,5.50
2008,06,11,04,59,4.90
2008,06,11,05,00,2.90
2008,06,11,05,01,5.40
2008,06,11,05,02,2.30
2008,06,11,05,03,4.10
2008,06,11,05,04,6.60
2008,06,11,05,05,2.80
2008,06,11,05,06,4.10
2008,06,11,05,07,5.40
2008,06,11,05,08,3.00
2008,06,11,05,09,5.70
2008,06,11,05,10,2.90
2008,06,11,05,11,5.70
2008,06,11,05,12,3.40
2008,06,11,05,13,5.10
2008,06,11,05,14,4.90
2008,06,11,05,15,2.90
2008,06,11,05,16,3.70
2008,06,11,05,17,2.90
2008,06,11,05,18,4.80
2008,06,11,05,19,5.20
2008,06,11,05,20,2.90
2008,06,11,05,21,4.20
2008,06,11,05,22,5.00
2008,06,11,05,23,8.00
2008,06,11,05,24,4.60
2008,06,11,05,25,3.40
2008,06,11,05,26,5.10
2008,06,11,05,27,4.40
2008,06,11,05,28,4.60
2008,06,11,05,29,5.40
2008,06,11,05,30,4.80
2008,06,11,05,31,3.50
2008,06,11,05,32,4.50
2008,06,11,05,33,3.90
2008,06,11,05,34,4.80
2008,06,11,05,35,3.80
2008,06,11,05,36,3.80
2008,06,11,05,37,3.80
2008,06,11,05,38,4.70
2008,06,11,05,39,5.50
2008,06,11,05,40,3.80
2008,06,11,05,41,4.50
2008,06,11,05,42,1.10
2008,06,11,05,43,1.90
2008,06,11,05,44,1.40
2008,06,11,05,45,4.80
2008,06,11,05,46,3.50
2008,06,11,05,47,5.00
2008,06,11,05,48,1.80
2008,06,11,05,49,2.80
2008,06,11,05,50,2.80
2008,06,11,05,51,2.60
2008,06,11,05,52,2.80
2008,06,11,05,53,2.70
2008,06,11,05,54,4.80
2008,06,11,05,55,4.90
2008,06,11,05,56,5.50
2008,06,11,05,57,3.40
2008,06,11,05,58,1.30
2008,06,11,05,59,1.50
2008,06,11,06,00,4.50
2008,06,11,06,01,2.40
2008,06,11,06,02,2.80
2008,06,11,06,03,3.40
2008,06,11,06,04,6.20
2008,06,11,06,05,3.00
2008,06,11,06,06,4.00
2008,06,11,06,07,2.40
2008,06,11,06,08,2.70
2008,06,11,06,09,4.50
2008,06,11,06,10,5.00
2008,06,11,06,11,5.30
2008,06,11,06,12,5.60
2008,06,11,06,13,1.60
2008,06,11,06,14,3.60
2008,06,11,06,15,3.50
2008,06,11,06,16,3.00
2008,06,11,06,17,3.80
2008,06,11,06,18,4.90
2008,06,11,06,19,2.90
2008,06,11,06,20,3.90
2008,06,11,06,21,3.10
2008,06,11,06,22,3.40
2008,06,11,06,23,3.50
2008,06,11,06,24,4.00
2008,06,11,06,25,2.70
2008,06,11,06,26,2.50
2008,06,11,06,27,3.50
2008,06,11,06,28,4.00
2008,06,11,06,29,4.90
2008,06,11,06,30,2.00
2008,06,11,06,31,3.80
2008,06,11,06,32,2.90
2008,06,11,06,33,3.50
2008,06,11,06,34,1.90
2008,06,11,06,35,2.10
2008,06,11,06,36,2.80
2008,06,11,06,37,2.20
2008,06,11,06,38,1.60
2008,06,11,06,39,5.00
2008,06,11,06,40,2.80
2008,06,11,06,41,2.70
2008,06,11,06,42,2.80
2008,06,11,06,43,2.90
2008,06,11,06,44,4.40
2008,06,11,06,45,3.80
2008,06,11,06,46,3.30
2008,06,11,06,47,0.90
2008,06,11,06,48,0.90
2008,06,11,06,49,2.70
2008,06,11,06,50,3.80
2008,06,11,06,51,3.80
2008,06,11,06,52,4.60
2008,06,11,06,53,3.30
2008,06,11,06,54,5.30
2008,06,11,06,55,3.80
2008,06,11,06,56,3.00
2008,06,11,06,57,4.10
2008,06,11,06,58,3.10
2008,06,11,06,59,3.70
2008,06,11,07,00,2.50
2008,06,11,07,01,3.40
2008,06,11,07,02,4.80
2008,06,11,07,03,6.30
2008,06,11,07,04,5.10
2008,06,11,07,05,4.80
2008,06,11,07,06,5.10
2008,06,11,07,07,6.40
2008,06,11,07,08,5.60
2008,06,11,07,09,4.70
2008,06,11,07,10,3.10
2008,06,11,07,11,5.10
2008,06,11,07,12,5.10
2008,06,11,07,13,3.50
2008,06,11,07,14,3.40
2008,06,11,07,15,4.30
2008,06,11,07,16,5.50
2008,06,11,07,17,3.70
2008,06,11,07,18,6.50
2008,06,11,07,19,6.70
2008,06,11,07,20,5.90
2008,06,11,07,21,4.40
2008,06,11,07,22,5.60
2008,06,11,07,23,6.40
2008,06,11,07,24,5.70
2008,06,11,07,25,4.40
2008,06,11,07,26,5.10
2008,06,11,07,27,4.50
2008,06,11,07,28,4.70
2008,06,11,07,29,7.10
2008,06,11,07,30,4.60
2008,06,11,07,31,3.50
2008,06,11,07,32,5.50
2008,06,11,07,33,6.70
2008,06,11,07,34,7.70
2008,06,11,07,35,5.20
2008,06,11,07,36,4.20
2008,06,11,07,37,4.30
2008,06,11,07,38,3.10
2008,06,11,07,39,4.60
2008,06,11,07,40,5.40
2008,06,11,07,41,5.80
2008,06,11,07,42,5.40
2008,06,11,07,43,3.00
2008,06,11,07,44,4.80
2008,06,11,07,45,3.80
2008,06,11,07,46,2.90
2008,06,11,07,47,1.50
2008,06,11,07,48,2.90
2008,06,11,07,49,4.50
2008,06,11,07,50,2.70
2008,06,11,07,51,1.00
2008,06,11,07,52,1.80
2008,06,11,07,53,3.70
2008,06,11,07,54,3.80
2008,06,11,07,55,2.80
2008,06,11,07,56,0.90
2008,06,11,07,57,2.20
2008,06,11,07,58,3.90
2008,06,11,07,59,1.50
2008,06,11,08,00,2.70
2008,06,11,08,01,1.10
2008,06,11,08,02,1.10
2008,06,11,08,03,2.70
2008,06,11,08,04,2.40
2008,06,11,08,05,3.00
2008,06,11,08,06,3.10
2008,06,11,08,07,4.40
2008,06,11,08,08,3.10
2008,06,11,08,09,2.50
2008,06,11,08,10,2.30
2008,06,11,08,11,1.60
2008,06,11,08,12,3.80
2008,06,11,08,13,4.30
2008,06,11,08,14,2.60
2008,06,11,08,15,3.10
2008,06,11,08,16,2.90
2008,06,11,08,17,1.20
2008,06,11,08,18,3.10
2008,06,11,08,19,2.90
2008,06,11,08,20,1.30
2008,06,11,08,21,2.00
2008,06,11,08,22,1.50
2008,06,11,08,23,2.90
2008,06,11,08,24,3.10
2008,06,11,08,25,2.60
2008,06,11,08,26,1.00
2008,06,11,08,27,2.20
2008,06,11,08,28,3.10
2008,06,11,08,29,0.50
2008,06,11,08,30,1.50
2008,06,11,08,31,2.40
2008,06,11,08,32,3.10
2008,06,11,08,33,4.10
2008,06,11,08,34,4.00
2008,06,11,08,35,1.20
2008,06,11,08,36,2.40
2008,06,11,08,37,1.30
2008,06,11,08,38,0.80
2008,06,11,08,39,3.70
2008,06,11,08,40,3.10
2008,06,11,08,41,1.30
2008,06,11,08,42,5.80
2008,06,11,08,43,3.60
2008,06,11,08,44,1.60
2008,06,11,08,45,2.40
2008,06,11,08,46,2.90
2008,06,11,08,47,3.40
2008,06,11,08,48,3.00
2008,06,11,08,49,2.80
2008,06,11,08,50,3.20
2008,06,11,08,51,3.20
2008,06,11,08,52,3.20
2008,06,11,08,53,3.20
2008,06,11,08,54,3.20
2008,06,11,08,55,3.20
2008,06,11,08,56,3.20
2008,06,11,08,57,3.20
2008,06,11,08,58,3.20
2008,06,11,14,55,2.90
2008,06,11,14,56,4.50
2008,06,11,14,57,4.20
2008,06,11,14,58,2.60
2008,06,11,14,59,1.30
2008,06,11,15,00,5.00
2008,06,11,15,01,4.20
2008,06,11,15,02,0.00
2008,06,11,15,03,2.10
2008,06,11,15,04,2.80
2008,06,11,15,05,1.90
2008,06,11,15,06,4.40
2008,06,11,15,07,3.00
2008,06,11,15,08,2.20
2008,06,11,15,09,1.90
2008,06,11,15,10,0.70
2008,06,11,15,11,1.20
2008,06,11,15,12,1.80
2008,06,11,15,13,1.30
2008,06,11,15,14,1.70
2008,06,11,15,15,3.00
2008,06,11,15,16,1.40
2008,06,11,15,17,0.20
2008,06,11,15,18,0.10
2008,06,11,15,19,0.70
2008,06,11,15,20,1.20
2008,06,11,15,21,2.90
2008,06,11,15,22,0.10
2008,06,11,15,23,2.30
2008,06,11,15,24,1.60
2008,06,11,15,25,1.00
2008,06,11,15,26,3.20
2008,06,11,15,27,1.50
2008,06,11,15,28,3.20
2008,06,11,15,29,3.00
2008,06,11,15,30,1.70
2008,06,11,15,31,0.60
2008,06,11,15,32,0.50
2008,06,11,15,33,2.40
2008,06,11,15,34,2.10
2008,06,11,15,35,3.40
2008,06,11,15,36,4.60
2008,06,11,15,37,4.90
2008,06,11,15,38,3.20
2008,06,11,15,39,1.50
2008,06,11,15,40,3.40
2008,06,11,15,41,3.10
2008,06,11,15,42,2.90
2008,06,11,15,43,5.70
2008,06,11,15,44,4.90
2008,06,11,15,45,5.90
2008,06,11,15,46,4.10
2008,06,11,15,47,3.60
2008,06,11,15,48,4.20
2008,06,11,15,49,3.70
2008,06,11,15,50,2.90
2008,06,11,15,51,3.40
2008,06,11,15,52,4.00
2008,06,11,15,53,4.10
2008,06,11,15,54,7.40
2008,06,11,15,55,6.40
2008,06,11,15,56,5.30
2008,06,11,15,57,4.60
2008,06,11,15,58,5.30
2008,06,11,15,59,4.30
2008,06,11,16,00,6.10
2008,06,11,16,01,3.10
2008,06,11,16,02,3.50
2008,06,11,16,03,2.50
2008,06,11,16,04,2.50
2008,06,11,16,05,4.70
2008,06,11,16,06,4.70
2008,06,11,16,07,4.30
2008,06,11,16,08,2.90
2008,06,11,16,09,2.90
2008,06,11,16,10,3.10
2008,06,11,16,11,3.70
2008,06,11,16,12,4.10
2008,06,11,16,13,3.10
2008,06,11,16,14,2.60
2008,06,11,16,15,5.90
2008,06,11,16,16,6.40
2008,06,11,16,17,4.10
2008,06,11,16,18,4.80
2008,06,11,16,19,3.60
2008,06,11,16,20,7.30
2008,06,11,16,21,6.60
2008,06,11,16,22,5.80
2008,06,11,16,23,6.80
2008,06,11,16,24,5.50
2008,06,11,16,25,6.20
2008,06,11,16,26,5.60
2008,06,11,16,27,7.90
2008,06,11,16,28,5.50
2008,06,11,16,29,4.40
2008,06,11,16,30,2.50
2008,06,11,16,31,1.10
2008,06,11,16,32,1.90
2008,06,11,16,33,2.10
2008,06,11,16,34,5.80
2008,06,11,16,35,3.60
2008,06,11,16,36,4.90
2008,06,11,16,37,5.70
2008,06,11,16,38,6.50
2008,06,11,16,39,8.60
2008,06,11,16,40,2.20
2008,06,11,16,41,3.90
2008,06,11,16,42,3.50
2008,06,11,16,43,4.20
2008,06,11,16,44,3.10
2008,06,11,16,45,3.40
2008,06,11,16,46,1.40
2008,06,11,16,47,1.00
2008,06,11,16,48,3.30
2008,06,11,16,49,5.40
2008,06,11,16,50,3.20
2008,06,11,16,51,4.70
2008,06,11,16,52,0.60
2008,06,11,16,53,5.70
2008,06,11,16,54,5.00
2008,06,11,16,55,2.70
2008,06,11,16,56,4.80
2008,06,11,16,57,5.00
2008,06,11,16,58,2.70
2008,06,11,16,59,1.70
2008,06,11,17,00,3.70
2008,06,11,17,01,2.90
2008,06,11,17,02,3.80
2008,06,11,17,03,1.50
2008,06,11,17,04,3.50
2008,06,11,17,05,6.20
2008,06,11,17,06,1.90
2008,06,11,17,07,3.00
2008,06,11,17,08,2.10
2008,06,11,17,09,2.00
2008,06,11,17,10,2.10
2008,06,11,17,11,1.60
2008,06,11,17,12,4.70
2008,06,11,17,13,1.00
2008,06,11,17,14,3.00
2008,06,11,17,15,3.60
2008,06,11,17,16,2.50
2008,06,11,17,17,3.80
2008,06,11,17,18,2.30
2008,06,11,17,19,3.70
2008,06,11,17,20,1.50
2008,06,11,17,21,0.50
2008,06,11,17,22,1.80
2008,06,11,17,23,0.50
2008,06,11,17,24,3.00
2008,06,11,17,25,2.00
2008,06,11,17,26,0.40
2008,06,11,17,27,2.20
2008,06,11,17,28,7.00
2008,06,11,17,29,3.10
2008,06,11,17,30,5.40
2008,06,11,17,31,7.60
2008,06,11,17,32,5.80
2008,06,11,17,33,8.10
2008,06,11,17,34,5.50
2008,06,11,17,35,4.00
2008,06,11,17,36,7.30
2008,06,11,17,37,6.30
2008,06,11,17,38,6.90
2008,06,11,17,39,4.80
2008,06,11,17,40,6.70
2008,06,11,17,41,5.00
2008,06,11,17,42,3.60
2008,06,11,17,43,4.40
2008,06,11,17,44,6.90
2008,06,11,17,45,2.80
2008,06,11,17,46,4.40
2008,06,11,17,47,5.10
2008,06,11,17,48,3.40
2008,06,11,17,49,4.60
2008,06,11,17,50,4.80
2008,06,11,17,51,6.50
2008,06,11,17,52,6.70
2008,06,11,17,53,5.40
2008,06,11,17,54,6.20
2008,06,11,17,55,3.80
2008,06,11,17,56,3.50
2008,06,11,17,57,2.60
2008,06,11,17,58,0.90
2008,06,11,17,59,5.50
2008,06,11,18,00,2.70
2008,06,11,18,01,2.90
2008,06,11,18,02,4.50
2008,06,11,18,03,2.70
2008,06,11,18,04,4.90
2008,06,11,18,05,4.90
2008,06,11,18,06,6.40
2008,06,11,18,07,5.70
2008,06,11,18,08,7.40
2008,06,11,18,09,4.20
2008,06,11,18,10,4.10
2008,06,11,18,11,3.20
2008,06,11,18,12,4.10
2008,06,11,18,13,2.50
2008,06,11,18,14,2.80
2008,06,11,18,15,2.50
2008,06,11,18,16,3.60
2008,06,11,18,17,2.10
2008,06,11,18,18,2.20
2008,06,11,18,19,1.80
2008,06,11,18,20,3.10
2008,06,11,18,21,1.30
2008,06,11,18,22,2.10
2008,06,11,18,23,6.10
2008,06,11,18,24,1.60
2008,06,11,18,25,3.00
2008,06,11,18,26,1.30
2008,06,11,18,27,1.30
2008,06,11,18,28,3.30
2008,06,11,18,29,3.20
2008,06,11,18,30,0.80
2008,06,11,18,31,0.50
2008,06,11,18,32,3.10
2008,06,11,18,33,3.70
2008,06,11,18,34,2.60
2008,06,11,18,35,3.40
2008,06,11,18,36,3.20
2008,06,11,18,37,1.80
2008,06,11,18,38,0.60
2008,06,11,18,39,5.60
2008,06,11,18,40,5.10
2008,06,11,18,41,2.50
2008,06,11,18,42,3.40
2008,06,11,18,43,3.10
2008,06,11,18,44,2.90
2008,06,11,18,45,1.70
2008,06,11,18,46,2.10
2008,06,11,18,47,4.30
2008,06,11,18,48,3.30
2008,06,11,18,49,5.90
2008,06,11,18,50,5.10
2008,06,11,18,51,5.20
2008,06,11,18,52,0.40
2008,06,11,18,53,2.30
2008,06,11,18,54,1.10
2008,06,11,18,55,3.30
2008,06,11,18,56,4.40
2008,06,11,18,57,3.20
2008,06,11,18,58,1.80
2008,06,11,18,59,0.80
2008,06,11,19,00,0.70
2008,06,11,19,01,1.40
2008,06,11,19,02,3.20
2008,06,11,19,03,3.80
2008,06,11,19,04,3.40
2008,06,11,19,05,4.00
2008,06,11,19,06,3.40
2008,06,11,19,07,4.30
2008,06,11,19,08,1.00
2008,06,11,19,09,5.50
2008,06,11,19,10,3.10
2008,06,11,19,11,1.10
2008,06,11,19,12,3.40
2008,06,11,19,13,1.50
2008,06,11,19,14,1.90
2008,06,11,19,15,2.00
2008,06,11,19,16,3.10
2008,06,11,19,17,1.90
2008,06,11,19,18,5.60
2008,06,11,19,19,4.10
2008,06,11,19,20,2.60
2008,06,11,19,21,3.30
2008,06,11,19,22,5.40
2008,06,11,19,23,3.60
2008,06,11,19,24,2.90
2008,06,11,19,25,2.10
2008,06,11,19,26,0.40
2008,06,11,19,27,0.70
2008,06,11,19,28,1.40
2008,06,11,19,29,4.70
2008,06,11,19,30,1.60
2008,06,11,19,31,2.10
2008,06,11,19,32,4.40
2008,06,11,19,33,6.70
2008,06,11,19,34,5.80
2008,06,11,19,35,7.40
2008,06,11,19,36,4.60
2008,06,11,19,37,3.90
2008,06,11,19,38,6.20
2008,06,11,19,39,2.10
2008,06,11,19,40,4.20
2008,06,11,19,41,2.60
2008,06,11,19,42,4.20
2008,06,11,19,43,3.00
2008,06,11,19,44,2.50
2008,06,11,19,45,1.50
2008,06,11,19,46,4.80
2008,06,11,19,47,6.00
2008,06,11,19,48,5.40
2008,06,11,19,49,5.70
2008,06,11,19,50,3.60
2008,06,11,19,51,4.10
2008,06,11,19,52,6.30
2008,06,11,19,53,7.50
2008,06,11,19,54,4.30
2008,06,11,19,55,5.50
2008,06,11,19,56,5.90
2008,06,11,19,57,5.50
2008,06,11,19,58,5.40
2008,06,11,19,59,3.80
2008,06,11,20,00,3.10
2008,06,11,20,01,4.80
2008,06,11,20,02,2.50
2008,06,11,20,03,5.30
2008,06,11,20,04,4.80
2008,06,11,20,05,4.70
2008,06,11,20,06,2.30
2008,06,11,20,07,3.10
2008,06,11,20,08,1.90
2008,06,11,20,09,2.50
2008,06,11,20,10,3.50
2008,06,11,20,11,4.30
2008,06,11,20,12,4.00
2008,06,11,20,13,3.10
2008,06,11,20,14,2.70
2008,06,11,20,15,4.40
2008,06,11,20,16,3.40
2008,06,11,20,17,2.50
2008,06,11,20,18,3.90
2008,06,11,20,19,3.00
2008,06,11,20,20,5.30
2008,06,11,20,21,2.70
2008,06,11,20,22,3.30
2008,06,11,20,23,2.10
2008,06,11,20,24,3.10
2008,06,11,20,25,3.50
2008,06,11,20,26,3.50
2008,06,11,20,27,2.00
2008,06,11,20,28,4.10
2008,06,11,20,29,4.90
2008,06,11,20,30,2.40
2008,06,11,20,31,2.10
2008,06,11,20,32,5.00
2008,06,11,20,33,2.40
2008,06,11,20,34,1.70
2008,06,11,20,35,4.20
2008,06,11,20,36,3.30
2008,06,11,20,37,3.80
2008,06,11,20,38,3.50
2008,06,11,20,39,2.70
2008,06,11,20,40,5.60
2008,06,11,20,41,0.70
2008,06,11,20,42,0.70
2008,06,11,20,43,0.00
2008,06,11,20,44,0.70
2008,06,11,20,45,2.10
2008,06,11,20,46,1.70
2008,06,11,20,47,3.40
2008,06,11,20,48,3.30
2008,06,11,20,49,3.40
2008,06,11,20,50,5.80
2008,06,11,20,51,3.10
2008,06,11,20,52,1.30
2008,06,11,20,53,7.50
2008,06,11,20,54,6.50
2008,06,11,20,55,5.00
2008,06,11,20,56,1.70
2008,06,11,20,57,2.80
2008,06,11,20,58,3.30
2008,06,11,20,59,3.10
2008,06,11,21,00,4.40
2008,06,11,21,01,4.60
2008,06,11,21,02,1.40
2008,06,11,21,03,2.70
2008,06,11,21,04,2.40
2008,06,11,21,05,2.70
2008,06,11,21,06,1.60
2008,06,11,21,07,2.20
2008,06,11,21,08,1.00
2008,06,11,21,09,3.30
2008,06,11,21,10,3.00
2008,06,11,21,11,4.50
2008,06,11,21,12,4.00
2008,06,11,21,13,2.10
2008,06,11,21,14,4.30
2008,06,11,21,15,3.00
2008,06,11,21,16,2.40
2008,06,11,21,17,1.50
2008,06,11,21,18,4.40
2008,06,11,21,19,2.00
2008,06,11,21,20,2.20
2008,06,11,21,21,2.20
2008,06,11,21,22,2.90
2008,06,11,21,23,3.70
2008,06,11,21,24,4.20
2008,06,11,21,25,3.30
2008,06,11,21,26,2.60
2008,06,11,21,27,2.20
2008,06,11,21,28,2.70
2008,06,11,21,29,2.70
2008,06,11,21,30,3.10
2008,06,11,21,31,4.40
2008,06,11,21,32,4.20
2008,06,11,21,33,2.10
2008,06,11,21,34,3.10
2008,06,11,21,35,3.60
2008,06,11,21,36,3.20
2008,06,11,21,37,4.30
2008,06,11,21,38,2.50
2008,06,11,21,39,1.20
2008,06,11,21,40,2.80
2008,06,11,21,41,0.90
2008,06,11,21,42,1.70
2008,06,11,21,43,3.30
2008,06,11,21,44,3.60
2008,06,11,21,45,3.10
2008,06,11,21,46,2.20
2008,06,11,21,47,2.60
2008,06,11,21,48,1.80
2008,06,11,21,49,1.70
2008,06,11,21,50,0.30
2008,06,11,21,51,2.60
2008,06,11,21,52,1.70
2008,06,11,21,53,1.00
2008,06,11,21,54,1.90
2008,06,11,21,55,1.70
2008,06,11,21,56,1.40
2008,06,11,21,57,3.70
2008,06,11,21,58,4.60
2008,06,11,21,59,6.30
2008,06,11,22,00,1.00
2008,06,11,22,01,0.60
2008,06,11,22,02,4.20
2008,06,11,22,03,3.30
2008,06,11,22,04,3.90
2008,06,11,22,05,2.90
2008,06,11,22,06,5.40
2008,06,11,22,07,4.90
2008,06,11,22,08,4.70
2008,06,11,22,09,2.70
2008,06,11,22,10,5.20
2008,06,11,22,11,3.90
2008,06,11,22,12,5.40
2008,06,11,22,13,2.70
2008,06,11,22,14,4.10
2008,06,11,22,15,3.80
2008,06,11,22,16,5.70
2008,06,11,22,17,3.40
2008,06,11,22,18,5.20
2008,06,11,22,19,4.30
2008,06,11,22,20,4.80
2008,06,11,22,21,5.00
2008,06,11,22,22,4.00
2008,06,11,22,23,2.90
2008,06,11,22,24,4.60
2008,06,11,22,25,5.30
2008,06,11,22,26,4.90
2008,06,11,22,27,3.70
2008,06,11,22,28,3.60
2008,06,11,22,29,4.10
2008,06,11,22,30,5.70
2008,06,11,22,31,5.20
2008,06,11,22,32,5.40
2008,06,11,22,33,4.60
2008,06,11,22,34,3.30
2008,06,11,22,35,4.70
2008,06,11,22,36,5.90
2008,06,11,22,37,7.00
2008,06,11,22,38,5.50
2008,06,11,22,39,6.40
2008,06,11,22,40,5.10
2008,06,11,22,41,4.20
2008,06,11,22,42,3.80
2008,06,11,22,43,5.30
2008,06,11,22,44,6.40
2008,06,11,22,45,6.30
2008,06,11,22,46,3.70
2008,06,11,22,47,4.00
2008,06,11,22,48,3.30
2008,06,11,22,49,4.50
2008,06,11,22,50,2.70
2008,06,11,22,51,4.70
2008,06,11,22,52,2.90
2008,06,11,22,53,3.80
2008,06,11,22,54,5.30
2008,06,11,22,55,5.60
2008,06,11,22,56,4.50
2008,06,11,22,57,6.30
2008,06,11,22,58,4.80
2008,06,11,22,59,4.90
2008,06,11,23,00,2.00
2008,06,11,23,01,6.20
2008,06,11,23,02,4.80
2008,06,11,23,03,3.80
2008,06,11,23,04,5.70
2008,06,11,23,05,8.00
2008,06,11,23,06,5.60
2008,06,11,23,07,7.70
2008,06,11,23,08,9.00
2008,06,11,23,09,4.60
2008,06,11,23,10,6.50
2008,06,11,23,11,6.30
2008,06,11,23,12,5.20
2008,06,11,23,13,8.40
2008,06,11,23,14,6.30
2008,06,11,23,15,6.70
2008,06,11,23,16,7.30
2008,06,11,23,17,3.20
2008,06,11,23,18,6.70
2008,06,11,23,19,4.10
2008,06,11,23,20,5.50
2008,06,11,23,21,3.20
2008,06,11,23,22,4.40
2008,06,11,23,23,5.30
2008,06,11,23,24,6.80
2008,06,11,23,25,4.30
2008,06,11,23,26,4.90
2008,06,11,23,27,5.30
2008,06,11,23,28,3.80
2008,06,11,23,29,2.60
2008,06,11,23,30,3.50
2008,06,11,23,31,2.70
2008,06,11,23,32,3.30
2008,06,11,23,33,2.50
2008,06,11,23,34,2.00
2008,06,11,23,35,3.00
2008,06,11,23,36,4.40
2008,06,11,23,37,2.50
2008,06,11,23,38,0.80
2008,06,11,23,39,2.80
2008,06,11,23,40,3.10
2008,06,11,23,41,3.30
2008,06,11,23,42,2.40
2008,06,11,23,43,3.00
2008,06,11,23,44,2.10
2008,06,11,23,45,1.60
2008,06,11,23,46,2.40
2008,06,11,23,47,3.40
2008,06,11,23,48,2.50
2008,06,11,23,49,1.40
2008,06,11,23,50,2.50
2008,06,11,23,51,1.10
2008,06,11,23,52,0.40
2008,06,11,23,53,3.90
2008,06,11,23,54,0.40
2008,06,11,23,55,0.10
2008,06,11,23,56,0.10
2008,06,11,23,57,1.10
2008,06,11,23,58,0.40
2008,06,11,23,59,2.30
